Location: Township of Marena
(38.1747°N, 99.6798°W)
Time: 12:12:22
(UTC+00:00)

Cosmos 1400 Rocket - Pass Details

Date: 26 October 2020
Orbit: 521 x 568 km, 81.2° (Epoch: 24 November)

Event Time Altitude Azimuth Distance (km) Brightness Sun altitude
Rises 11:26:41 0° 359° (N) 2,698 6.3 -18.7°
Reaches altitude 10° 11:28:59 10° 8° (N) 1,795 5.5 -18.3°
Maximum altitude 11:32:40 38° 77° (ENE) 823 4.3 -17.6°
Drops below altitude 10° 11:36:18 10° 146° (SSE) 1,761 5.9 -16.9°
Sets 11:38:31 0° 155° (SSE) 2,640 6.7 -16.4°
